daftar

Jackpot

Texas Poker Multi Jackpot System

Kini Telah hadir Jackpot SUPER ROYAL FLUSH

Kini Telah hadir Jackpot 2000 (khusus table VIP keatas).

Ikutilah global jackpot yang tersedia di system kami, dengan system jackpot terbaru dan pertama di indonesia, anda dapat membeli jackpot dengan harga 100 rupiah saja dan menangkan hadiahnya hingga puluhan juta rupiah.

Jackpot bukanlah suatu keharusan untuk dibeli, namun kami memberikan suatu fitur tambahan untuk member tercinta dari www.tunaspoker.org.

Terdapat tiga pilihan harga jackpot yang bisa anda beli yaitu :100,500,1000 dan 2000(khusus table VIP Keatas) rupiah.

Hadiah dari Multi jackpot system www.tunaspoker.org

  1. full house x 10 harga jackpot yang anda beli.
      (contoh:anda membeli 1000 maka:1000 X10 = 10.000)
  2. four of kind x 250 harga jackpot yang anda beli
      (contoh:anda membeli 1000 maka:1000 X250 = 250.000)
  3. Straight flush x 1200
      (contoh:anda membeli 1000 maka:1000 X1200 = 1.200.000)
  4. Royal flush x 10000 harga jackpot yang anda beli
      (contoh:anda membeli 1000 maka:1000 X10000 = 10.000.000)
  5. SUPER ROYAL FLUSH x 30000 harga jackpot yang anda beli
      (contoh:anda membeli 1000 maka:1000 X30000 = 30.000.000)

Kondisi kartu

  1. full house adalah kondisi kartu dimana kartu anda dan kartu tengah dengan total 7 kartu bisa mendapatkan nilai 5 kartu dengan kombinasi 1 tris(three of kind) dan 1 pair, contoh 3 kartu 10 dan 2 kartu 5
  2. Four of kind adalah kondisi kartu dimana kartu anda dan kartu tengah dengan total 7 kartu bisa mendapatkan nilai 5 kartu dengan kombinasi 4 kartu yang sama jumlah dan 1 kartu apapun juga contoh anda mendapatkan 4 buah kartu angka 3 dan 1 kartu apapun.
  3. Staright flush adalah kondisi kartu dimana kartu anda dan kartu tengah dengan total 7 kartu bisa mendapatkan nilai 5 kartu dengan kombinasi seri / staright dengan kembang yang sama contoh : urutan kartu dari angka 5, 6, 7, 8 , 9 10 dengan kembang yg sama misalnya as hati
  4. Royal flush adalah kondisi kartu dimana kartu anda dan kartu tengah dengan total 7 kartu bisa mendapatkan nilai 5 kartu dengan kombinasi seri / staright dengan kembang yang sama tetapi kartu tersebut haruslah dimulai dari 10. contoh 10, Queen, Jack, King dan aces dengan kembang yang sama
  5. Super Royal flush adalah kondisi kartu dimana Kedua kartu anda digabung dengan 3 kartu pertama meja haruslah royal flush. contoh kartu anda 10,Queen kembang sama dan 3 kartu pertama meja adalah Jack, King dan aces dengan kembang yang sama

Demikian adalah penjelasan dari Multi Jackpot www.tunaspoker.org terima kasih dan selamat bermain salam hoki dari kami

Texas Poker Jackpot Winner

TOP SUPER ROYAL FLUSH
No.TanggalNamaPriceWin
121/10 17:56BAJUPUTIH7Super Royal flush15,000,000
221/10 17:01SULTAN30Super Royal flush30,000,000
321/10 14:55LINH110895Super Royal flush60,000,000
421/10 12:49AAD334E9Super Royal flush6,000,000
521/10 05:07RUZFIHOKYSuper Royal flush15,000,000
TOP ROYAL FLUSH
No.TanggalNamaPriceWin
121/10 19:39BINGKARoyal flush2,000,000
221/10 19:33NAGA13Royal flush1,000,000
321/10 18:52PELOPOR99Royal flush20,000,000
421/10 18:38HASAN077Royal flush500,000
521/10 18:36PD4DSIRONRoyal flush2,000,000
TOP STRAIGHT FLUSH
No.TanggalNamaPriceWin
121/10 19:42OPP077Straight Flush240,000
221/10 19:42VUNIZ11IMTStraight Flush600,000
321/10 19:41HENCET04Straight Flush240,000
421/10 19:41SUTOBOY293Straight Flush600,000
521/10 19:40VGNStraight Flush600,000
LATEST JACKPOT
No.TanggalNamaPriceWin
121/10 19:43J9AKJTWB98Full House2,000
221/10 19:43B13BONIPE346Full House5,000
321/10 19:43DONTO78Full House2,000
421/10 19:43ICEBLES88Full House2,000
521/10 19:43EZA1234567Full House2,000
621/10 19:43KEYSHA_LIUFull House1,000
721/10 19:43A80MYS992Full House2,000
821/10 19:43PAPSEKS3Full House2,000
921/10 19:43GHANI_02Full House5,000
1021/10 19:43HJJ5656Full House10,000
1121/10 19:43BH4NDITOFull House5,000
1221/10 19:43NURI88Full House2,000
1321/10 19:43C92Y1111273Full House2,000
1421/10 19:43OONBALAFull House2,000
1521/10 19:43MCP7KUTSWRFull House5,000
1621/10 19:43FAUZAN770Full House2,000
1721/10 19:43DEIRGI123Full House5,000
1821/10 19:43AY1983Four Of A Kind50,000
1921/10 19:43B3B3D4HANFull House5,000
2021/10 19:42HASANUDINNFull House1,000
2121/10 19:42PANCIR_3Full House2,000
2221/10 19:42DI_KUAHFull House5,000
2321/10 19:42BEBALANG12Full House1,000
2421/10 19:42WANRI2609Full House500
2521/10 19:42D65061E0Full House2,000
2621/10 19:42KOBOY_99Four Of A Kind125,000
2721/10 19:42JANCOK9998Full House5,000
2821/10 19:42TALOBUK1Full House5,000
2921/10 19:42SKP77Full House2,000
3021/10 19:42ZETTEMPURFull House2,000
3121/10 19:42MAISYA_96Full House5,000
3221/10 19:42OPP077Straight Flush240,000
3321/10 19:42LIMBUNG_33Full House2,000
3421/10 19:42GLONDOR881Full House5,000
3521/10 19:42DINAN1000Full House5,000
3621/10 19:42AREELL07Full House5,000
3721/10 19:42DESVOFull House10,000
3821/10 19:42YAYAH10Full House2,000
3921/10 19:42S3M3N3Full House2,000
4021/10 19:42EGAGOTRI11Full House2,000
4121/10 19:42ONESOUL200Full House2,000
4221/10 19:42CEKI29Full House1,000
4321/10 19:42EDWARD212Full House2,000
4421/10 19:42MESRA07Full House1,000
4521/10 19:42MOON_JP88Full House1,000
4621/10 19:42AMO11Full House2,000
4721/10 19:42KONTO1KUDAFull House2,000
4821/10 19:42SOMAT87Full House5,000
4921/10 19:42HAOMARU99Full House2,000
5021/10 19:42CUCUY1Full House2,000

Domino Multi Jackpot System

Ikutilah global jackpot yang tersedia di system kami, dengan system jackpot terbaru dan pertama di indonesia, anda dapat membeli jackpot dengan harga 100 rupiah saja dan menangkan hadiahnya hingga puluhan juta rupiah.

Jackpot bukanlah suatu keharusan untuk dibeli, namun kami memberikan suatu fitur tambahan untuk member tercinta dari www.tunaspoker.org.

Terdapat tiga pilihan harga jackpot yang bisa anda beli yaitu :100,500 dan 1000 rupiah.

Hadiah dari Multi jackpot system www.tunaspoker.org

  1. Murni Kecil x 50 harga jackpot yang anda beli.
      (contoh:anda membeli 1000 maka:1000 X 50 = 50.000)
  2. Murni Besar x 50 harga jackpot yang anda beli
      (contoh:anda membeli 1000 maka:1000 X 50 = 50.000)
  3. BALAK x 100 harga jackpot yang anda beli
      (contoh:anda membeli 1000 maka:1000 X 100 = 100.000)
  4. ENAM DEWA x 6666 harga jackpot yang anda beli
      (contoh:anda membeli 1000 maka:1000 X 6666 = 6.666.000)

Demikian adalah penjelasan dari Multi Jackpot www.tunaspoker.org terima kasih dan selamat bermain salam hoki dari kami

Domino Jackpot Winner

TOP ENAM DEWA
No.TanggalNamaPriceWin
121/10 18:57RIMAUJAMBImurni enam6,666,000
221/10 17:42AMIN98murni enam6,666,000
321/10 16:42AGAMHKNmurni enam6,666,000
421/10 16:00RIKIRICARDmurni enam3,333,000
521/10 15:17LB91049murni enam666,600
TOP BALAK
No.TanggalNamaPriceWin
121/10 19:42MAD4M13balak100,000
221/10 19:37DODOR21balak10,000
321/10 19:36ITIIIIILLLbalak100,000
421/10 19:34GREE12balak100,000
521/10 19:31SAAAAAAAASbalak100,000
LATEST JACKPOT
No.TanggalNamaPriceWin
121/10 19:42SAIPUL779lucky992,500
221/10 19:42MAD4M13balak100,000
321/10 19:42KULI18murni kecil25,000
421/10 19:41EMONOSmurni besar50,000
521/10 19:40LILIS12345murni kecil25,000
621/10 19:39REPUBLIC5murni besar5,000
721/10 19:39UHA550murni besar25,000
821/10 19:39DANYHOKY88murni kecil5,000
921/10 19:39IBARA1murni kecil50,000
1021/10 19:39VALDO017murni kecil50,000
1121/10 19:39BOSTAJImurni besar50,000
1221/10 19:39MIRAW96murni kecil25,000
1321/10 19:39AURORA22murni kecil5,000
1421/10 19:38DJ_ABLAYmurni besar50,000
1521/10 19:38ALESIAmurni kecil50,000
1621/10 19:38PASCAL24murni kecil25,000
1721/10 19:38D1434054murni besar5,000
1821/10 19:37FEL6666murni kecil50,000
1921/10 19:37DODOR21balak10,000
2021/10 19:37ARJEXBARUmurni besar5,000
2121/10 19:36ITIIIIILLLbalak100,000
2221/10 19:35DOMQQmurni kecil50,000
2321/10 19:35CAH007murni kecil50,000
2421/10 19:35PR4K0S0murni besar50,000
2521/10 19:34DPTTUCHILDmurni besar50,000
2621/10 19:34GREE12balak100,000
2721/10 19:33BANGKE_JTmurni kecil5,000
2821/10 19:32DDB84DA8murni kecil25,000
2921/10 19:32JONOOGE28murni kecil25,000
3021/10 19:31SAAAAAAAASbalak100,000
3121/10 19:31KOBRA89lucky992,500
3221/10 19:31M00BILmurni kecil50,000
3321/10 19:30ERWIN16murni besar50,000
3421/10 19:30BOPENGGGmurni kecil25,000
3521/10 19:30ASKADILAmurni kecil50,000
3621/10 19:30PEDAREmurni kecil50,000
3721/10 19:30WAKELUCKYmurni besar50,000
3821/10 19:29MAD4M13murni kecil50,000
3921/10 19:29E649029Emurni kecil25,000
4021/10 19:28TRAPCITYmurni kecil50,000
4121/10 19:28TOGELCOINmurni besar25,000
4221/10 19:28SSSHHmurni kecil5,000
4321/10 19:27GENJER87murni kecil5,000
4421/10 19:27RPK77murni kecil5,000
4521/10 19:27REMOT155murni besar50,000
4621/10 19:26BR4NBRYNmurni kecil50,000
4721/10 19:25M00BILmurni besar50,000
4821/10 19:25CB77JEPANG88murni besar25,000
4921/10 19:24WANWILLYmurni kecil50,000
5021/10 19:24TNHOKY66murni besar50,000

Ceme Multi Jackpot System

Jackpot dilihat dari gabungan kartu pemain dengan kartu bandar. Bandar harus membeli jackpot sebanyak jumlah player yang sedang duduk. Sebagai contoh bila terdapat 3 pemain duduk bermain, dan bandar memutuskan untuk membeli jackpot Rp 1.000, maka pada periode tersebut bandar akan membeli jackpot sebanyak 3xRp1.000 = Rp3.000.

Jackpot bukanlah suatu keharusan untuk dibeli, namun kami memberikan suatu fitur tambahan untuk member tercinta dari www.tunaspoker.org.

Terdapat tiga pilihan harga jackpot yang bisa anda beli yaitu :100,500 dan 1000 rupiah.

Hadiah dari Multi jackpot system www.tunaspoker.org

  1. Murni Kecil x 50 harga jackpot yang anda beli.
      (contoh:anda membeli 1000 maka:1000 X 50 = 50.000)
  2. Murni Besar x 50 harga jackpot yang anda beli
      (contoh:anda membeli 1000 maka:1000 X 50 = 50.000)
  3. BALAK x 200 harga jackpot yang anda beli
      (contoh:anda membeli 1000 maka:1000 X 200 = 200.000)
  4. ENAM DEWA x 6666 harga jackpot yang anda beli
      (contoh:anda membeli 1000 maka:1000 X 6666 = 6.666.000)

Demikian adalah penjelasan dari Multi Jackpot www.tunaspoker.org terima kasih dan selamat bermain salam hoki dari kami

Ceme Jackpot Winner

TOP ENAM DEWA
No.TanggalNamaPriceWin
121/10 19:42KENDY63murni enam6,666,000
221/10 19:23XXC2murni enam3,333,000
321/10 19:19HARUS5873murni enam6,666,000
421/10 19:19LUTHFI26murni enam6,666,000
521/10 19:18OTA25murni enam666,600
TOP BALAK
No.TanggalNamaPriceWin
121/10 19:43B4KUNG45balak200,000
221/10 19:41KASMONO14balak200,000
321/10 19:41NIKEN23balak200,000
421/10 19:41UNTUNGG90balak20,000
521/10 19:41BOTT0101balak100,000
LATEST JACKPOT
No.TanggalNamaPriceWin
121/10 19:43B4KUNG45balak200,000
221/10 19:42LERYmurni besar5,000
321/10 19:42NAGITA321murni besar5,000
421/10 19:42AY10murni besar50,000
521/10 19:4245UPEAKmurni kecil50,000
621/10 19:42KENDY63murni enam6,666,000
721/10 19:42STREET07murni kecil5,000
821/10 19:42DARAKH123murni kecil50,000
921/10 19:42MR_DW12murni kecil5,000
1021/10 19:42KURAPASUmurni besar50,000
1121/10 19:42JACKPOT_09murni besar50,000
1221/10 19:42DEKNANUNmurni kecil50,000
1321/10 19:42SUSANTO77murni kecil50,000
1421/10 19:42MUMUmurni kecil50,000
1521/10 19:41VEXORmurni kecil25,000
1621/10 19:41MUMEK87murni kecil5,000
1721/10 19:41AHMADFARI8murni kecil50,000
1821/10 19:41DODIK90murni kecil50,000
1921/10 19:41KASMONO14balak200,000
2021/10 19:41PURTIZIANAmurni besar50,000
2121/10 19:41AFULIK88murni kecil25,000
2221/10 19:41NIKEN23balak200,000
2321/10 19:41UNTUNGG90balak20,000
2421/10 19:41WOANDRE40murni kecil50,000
2521/10 19:41DEKNANUNmurni kecil50,000
2621/10 19:41GLI99murni kecil50,000
2721/10 19:41AJP25murni besar5,000
2821/10 19:41CEPOTLGmurni besar50,000
2921/10 19:41HAJIWINmurni kecil50,000
3021/10 19:41THEMASTHERmurni kecil5,000
3121/10 19:41SANETAmurni besar25,000
3221/10 19:41BOTT0101balak100,000
3321/10 19:41BURMAWIbalak200,000
3421/10 19:40BELUT29murni besar50,000
3521/10 19:40C342F5CBmurni besar5,000
3621/10 19:40AROEM122balak100,000
3721/10 19:40BADAR88balak100,000
3821/10 19:40SUSANTO77murni kecil25,000
3921/10 19:40MRORO888balak200,000
4021/10 19:40BANGKRUT13balak200,000
4121/10 19:40JAJA022balak20,000
4221/10 19:40IAMSTANmurni kecil50,000
4321/10 19:40PRA59murni kecil5,000
4421/10 19:40A53ERLIANA72balak200,000
4521/10 19:40MOD3RNmurni kecil50,000
4621/10 19:40NUNKYS2murni kecil50,000
4721/10 19:40CA13C311murni kecil50,000
4821/10 19:40CHANILL45murni kecil50,000
4921/10 19:40R4M11balak200,000
5021/10 19:40CUPZbalak20,000